| time (UTC) | temp F | wind direction | speed MPH | gust MPH | rain 1hr in | rain 24hr in | rain mn in | humidity % | barometer mb |
| 20260906011003 | 51 | 0 | 0.0 | 0.0 | 0.00 | 0.00 | 0.00 | 93 | 1026.6 |
| 20260906010503 | 51 | 0 | 0.0 | 0.0 | 0.00 | 0.00 | 0.00 | 93 | 1026.5 |
| 20260906010003 | 51 | 0 | 0.0 | 0.0 | 0.00 | 0.00 | 0.00 | 93 | 1026.5 |
| 20260906005503 | 51 | 0 | 0.0 | 0.0 | 0.00 | 0.00 | 0.00 | 93 | 1026.6 |
| 20260906005003 | 51 | 0 | 0.0 | 0.0 | 0.00 | 0.00 | 0.00 | 93 | 1026.7 |
| 20260906004503 | 51 | 0 | 0.0 | 0.0 | 0.00 | 0.00 | 0.00 | 93 | 1026.8 |
| 20260906004003 | 51 | 0 | 0.0 | 0.0 | 0.00 | 0.00 | 0.00 | 92 | 1026.7 |
| 20260906003503 | 51 | 0 | 0.0 | 0.0 | 0.00 | 0.00 | 0.00 | 93 | 1026.7 |
| 20260906003003 | 51 | 0 | 0.0 | 0.0 | 0.00 | 0.00 | 0.00 | 92 | 1026.7 |
| 20260906002503 | 52 | 0 | 0.0 | 0.0 | 0.00 | 0.00 | 0.00 | 92 | 1026.6 |
| 20260906002003 | 52 | 0 | 0.0 | 0.0 | 0.00 | 0.00 | 0.00 | 92 | 1026.6 |
| 20260906001503 | 52 | 0 | 0.0 | 0.0 | 0.00 | 0.00 | 0.00 | 92 | 1026.6 |
| 20260906001003 | 52 | 0 | 0.0 | 0.0 | 0.00 | 0.00 | 0.00 | 92 | 1026.7 |
| 20260906000503 | 52 | 0 | 0.0 | 0.0 | 0.00 | 0.00 | 0.00 | 92 | 1026.6 |
| 20260906000219 | 52 | 0 | 0.0 | 0.0 | 0.00 | 0.00 | 0.00 | 92 | 1026.7 |
| 20260905235503 | 52 | 0 | 0.0 | 0.0 | 0.00 | 0.00 | 0.00 | 92 | 1026.5 |
| 20260905235003 | 52 | 0 | 0.0 | 0.0 | 0.00 | 0.00 | 0.00 | 92 | 1026.5 |
| 20260905234503 | 52 | 0 | 0.0 | 0.0 | 0.00 | 0.00 | 0.00 | 92 | 1026.6 |
| 20260905234003 | 52 | 0 | 0.0 | 0.0 | 0.00 | 0.00 | 0.00 | 92 | 1026.5 |
| 20260905233503 | 52 | 0 | 0.0 | 0.0 | 0.00 | 0.00 | 0.00 | 91 | 1026.5 |
| 20260905233003 | 52 | 0 | 0.0 | 0.0 | 0.00 | 0.00 | 0.00 | 91 | 1026.5 |
| 20260905232503 | 53 | 0 | 0.0 | 0.0 | 0.00 | 0.00 | 0.00 | 91 | 1026.5 |
| 20260905232217 | 53 | 0 | 0.0 | 0.0 | 0.00 | 0.00 | 0.00 | 91 | 1026.5 |
| 20260905231503 | 53 | 0 | 0.0 | 0.0 | 0.00 | 0.00 | 0.00 | 92 | 1026.5 |
| 20260905231003 | 53 | 0 | 0.0 | 0.0 | 0.00 | 0.00 | 0.00 | 91 | 1026.5 |
| 20260905230503 | 53 | 0 | 0.0 | 0.0 | 0.00 | 0.00 | 0.00 | 91 | 1026.5 |
| 20260905230003 | 53 | 0 | 0.0 | 0.0 | 0.00 | 0.00 | 0.00 | 91 | 1026.6 |
| 20260905225503 | 53 | 0 | 0.0 | 0.0 | 0.00 | 0.00 | 0.00 | 90 | 1026.4 |
| 20260905225003 | 53 | 0 | 0.0 | 0.0 | 0.00 | 0.00 | 0.00 | 90 | 1026.3 |
| 20260905224503 | 53 | 256 | 0.0 | 1.0 | 0.00 | 0.00 | 0.00 | 90 | 1026.4 |
| 20260905224003 | 53 | 256 | 0.0 | 2.0 | 0.00 | 0.00 | 0.00 | 90 | 1026.5 |
| 20260905223503 | 54 | 256 | 0.0 | 2.0 | 0.00 | 0.00 | 0.00 | 90 | 1026.4 |
| 20260905223003 | 54 | 256 | 0.0 | 1.0 | 0.00 | 0.00 | 0.00 | 89 | 1026.3 |
| 20260905222503 | 54 | 256 | 0.0 | 2.0 | 0.00 | 0.00 | 0.00 | 89 | 1026.3 |
| 20260905222003 | 54 | 256 | 0.0 | 2.0 | 0.00 | 0.00 | 0.00 | 89 | 1026.1 |
| 20260905221718 | 54 | 256 | 0.0 | 1.0 | 0.00 | 0.00 | 0.00 | 89 | 1026.2 |
| 20260905221003 | 54 | 256 | 0.0 | 2.0 | 0.00 | 0.00 | 0.00 | 88 | 1026.1 |
| 20260905220503 | 54 | 265 | 0.0 | 2.0 | 0.00 | 0.00 | 0.00 | 88 | 1026.0 |
| 20260905220004 | 55 | 271 | 0.0 | 2.0 | 0.00 | 0.00 | 0.00 | 88 | 1026.0 |
| 20260905215503 | 55 | 0 | 0.0 | 0.0 | 0.00 | 0.00 | 0.00 | 87 | 1026.1 |
| 20260905215003 | 55 | 285 | 0.0 | 1.0 | 0.00 | 0.00 | 0.00 | 87 | 1026.0 |
| 20260905214503 | 55 | 285 | 0.0 | 1.0 | 0.00 | 0.00 | 0.00 | 86 | 1025.8 |
| 20260905214216 | 55 | 285 | 0.0 | 2.0 | 0.00 | 0.00 | 0.00 | 87 | 1025.9 |
| 20260905213503 | 56 | 285 | 1.0 | 3.0 | 0.00 | 0.00 | 0.00 | 86 | 1025.8 |
| 20260905213003 | 56 | 285 | 0.0 | 3.0 | 0.00 | 0.00 | 0.00 | 86 | 1025.7 |
| 20260905212717 | 56 | 285 | 0.0 | 2.0 | 0.00 | 0.00 | 0.00 | 86 | 1025.8 |
| 20260905212003 | 56 | 285 | 0.0 | 2.0 | 0.00 | 0.00 | 0.00 | 86 | 1025.7 |
| 20260905211717 | 56 | 285 | 0.0 | 2.0 | 0.00 | 0.00 | 0.00 | 86 | 1025.8 |
| 20260905211003 | 57 | 285 | 1.0 | 4.0 | 0.00 | 0.00 | 0.00 | 86 | 1025.8 |
| 20260905210503 | 57 | 284 | 1.0 | 4.0 | 0.00 | 0.00 | 0.00 | 86 | 1025.8 |
| 20260905210218 | 57 | 284 | 1.0 | 3.0 | 0.00 | 0.00 | 0.00 | 86 | 1025.9 |
| 20260905205503 | 57 | 282 | 1.0 | 3.0 | 0.00 | 0.00 | 0.00 | 84 | 1025.9 |
| 20260905205003 | 57 | 280 | 1.0 | 3.0 | 0.00 | 0.00 | 0.00 | 84 | 1025.9 |
| 20260905204503 | 57 | 263 | 0.0 | 3.0 | 0.00 | 0.00 | 0.00 | 84 | 1025.8 |
| 20260905204003 | 57 | 258 | 1.0 | 4.0 | 0.00 | 0.00 | 0.00 | 84 | 1025.8 |
| 20260905203503 | 58 | 252 | 1.0 | 4.0 | 0.00 | 0.00 | 0.00 | 83 | 1025.7 |
| 20260905203218 | 58 | 250 | 1.0 | 3.0 | 0.00 | 0.00 | 0.00 | 83 | 1025.7 |
| 20260905202717 | 58 | 250 | 1.0 | 3.0 | 0.00 | 0.00 | 0.00 | 82 | 1025.7 |
| 20260905202218 | 58 | 250 | 0.0 | 3.0 | 0.00 | 0.00 | 0.00 | 82 | 1025.7 |
| 20260905201717 | 58 | 254 | 1.0 | 4.0 | 0.00 | 0.00 | 0.00 | 82 | 1025.8 |
| 20260905201005 | 58 | 268 | 2.0 | 4.0 | 0.00 | 0.00 | 0.00 | 82 | 1025.7 |
| 20260905200503 | 58 | 264 | 2.0 | 5.0 | 0.00 | 0.00 | 0.00 | 82 | 1025.6 |
| 20260905200003 | 58 | 249 | 2.0 | 5.0 | 0.00 | 0.00 | 0.00 | 81 | 1025.5 |
| 20260905195503 | 59 | 240 | 2.0 | 4.0 | 0.00 | 0.00 | 0.00 | 81 | 1025.6 |
| 20260905195004 | 59 | 239 | 1.0 | 4.0 | 0.00 | 0.00 | 0.00 | 80 | 1025.6 |
| 20260905194503 | 59 | 241 | 1.0 | 4.0 | 0.00 | 0.00 | 0.00 | 80 | 1025.5 |
| 20260905194218 | 59 | 239 | 1.0 | 4.0 | 0.00 | 0.00 | 0.00 | 79 | 1025.5 |
| 20260905193503 | 60 | 275 | 1.0 | 3.0 | 0.00 | 0.00 | 0.00 | 79 | 1025.5 |
| 20260905193003 | 60 | 281 | 2.0 | 6.0 | 0.00 | 0.00 | 0.00 | 78 | 1025.4 |
| 20260905192503 | 60 | 280 | 2.0 | 6.0 | 0.00 | 0.00 | 0.00 | 78 | 1025.4 |
| 20260905192217 | 60 | 285 | 2.0 | 6.0 | 0.00 | 0.00 | 0.00 | 78 | 1025.3 |
| 20260905191503 | 60 | 290 | 3.0 | 5.0 | 0.00 | 0.00 | 0.00 | 77 | 1025.2 |
| 20260905191003 | 61 | 282 | 3.0 | 8.0 | 0.00 | 0.00 | 0.00 | 77 | 1025.1 |
| 20260905190503 | 61 | 277 | 4.0 | 9.0 | 0.00 | 0.00 | 0.00 | 76 | 1025.1 |
| 20260905190003 | 61 | 279 | 4.0 | 9.0 | 0.00 | 0.00 | 0.00 | 75 | 1025.2 |
| 20260905185503 | 62 | 281 | 4.0 | 11.0 | 0.00 | 0.00 | 0.00 | 75 | 1025.1 |
| 20260905185003 | 62 | 283 | 4.0 | 11.0 | 0.00 | 0.00 | 0.00 | 75 | 1025.0 |
| 20260905184503 | 62 | 290 | 3.0 | 8.0 | 0.00 | 0.00 | 0.00 | 74 | 1025.1 |
| 20260905184003 | 62 | 298 | 3.0 | 8.0 | 0.00 | 0.00 | 0.00 | 74 | 1024.9 |
| 20260905183718 | 62 | 301 | 3.0 | 8.0 | 0.00 | 0.00 | 0.00 | 73 | 1024.9 |
| 20260905183003 | 62 | 302 | 3.0 | 7.0 | 0.00 | 0.00 | 0.00 | 73 | 1024.8 |
| 20260905182718 | 62 | 303 | 2.0 | 5.0 | 0.00 | 0.00 | 0.00 | 73 | 1024.7 |
| 20260905182003 | 62 | 294 | 2.0 | 5.0 | 0.00 | 0.00 | 0.00 | 73 | 1024.6 |
| 20260905181503 | 62 | 279 | 2.0 | 7.0 | 0.00 | 0.00 | 0.00 | 72 | 1024.5 |
| 20260905181003 | 62 | 284 | 3.0 | 8.0 | 0.00 | 0.00 | 0.00 | 72 | 1024.5 |
| 20260905180503 | 62 | 289 | 3.0 | 8.0 | 0.00 | 0.00 | 0.00 | 72 | 1024.4 |
| 20260905180217 | 62 | 289 | 4.0 | 9.0 | 0.00 | 0.00 | 0.00 | 72 | 1024.5 |
| 20260905175718 | 62 | 285 | 4.0 | 9.0 | 0.00 | 0.00 | 0.00 | 72 | 1024.5 |
| 20260905175003 | 63 | 280 | 4.0 | 8.0 | 0.00 | 0.00 | 0.00 | 72 | 1024.5 |
| 20260905174718 | 63 | 279 | 4.0 | 9.0 | 0.00 | 0.00 | 0.00 | 72 | 1024.4 |
| 20260905174003 | 63 | 282 | 5.0 | 9.0 | 0.00 | 0.00 | 0.00 | 71 | 1024.3 |
| 20260905173503 | 64 | 284 | 4.0 | 9.0 | 0.00 | 0.00 | 0.00 | 71 | 1024.4 |
| 20260905173003 | 64 | 289 | 4.0 | 9.0 | 0.00 | 0.00 | 0.00 | 70 | 1024.4 |
| 20260905172503 | 65 | 289 | 4.0 | 9.0 | 0.00 | 0.00 | 0.00 | 70 | 1024.4 |
| 20260905172003 | 65 | 287 | 5.0 | 11.0 | 0.00 | 0.00 | 0.00 | 70 | 1024.3 |
| 20260905171503 | 65 | 288 | 6.0 | 11.0 | 0.00 | 0.00 | 0.00 | 70 | 1024.4 |
| 20260905171217 | 65 | 288 | 7.0 | 16.0 | 0.00 | 0.00 | 0.00 | 69 | 1024.2 |
| 20260905170718 | 65 | 283 | 8.0 | 17.0 | 0.00 | 0.00 | 0.00 | 69 | 1024.3 |
| 20260905170003 | 65 | 283 | 8.0 | 19.0 | 0.00 | 0.00 | 0.00 | 67 | 1024.1 |
| 20260905165503 | 65 | 287 | 8.0 | 19.0 | 0.00 | 0.00 | 0.00 | 68 | 1024.1 |
| 20260905165217 | 65 | 286 | 7.0 | 13.0 | 0.00 | 0.00 | 0.00 | 69 | 1024.1 |
| 20260905164717 | 65 | 284 | 6.0 | 13.0 | 0.00 | 0.00 | 0.00 | 69 | 1024.0 |
| 20260905164216 | 65 | 286 | 6.0 | 13.0 | 0.00 | 0.00 | 0.00 | 68 | 1023.9 |
| 20260905163717 | 65 | 288 | 5.0 | 10.0 | 0.00 | 0.00 | 0.00 | 68 | 1023.8 |
| 20260905163003 | 65 | 294 | 4.0 | 9.0 | 0.00 | 0.00 | 0.00 | 66 | 1023.7 |
| 20260905162503 | 66 | 295 | 5.0 | 9.0 | 0.00 | 0.00 | 0.00 | 66 | 1023.7 |
| 20260905162003 | 66 | 296 | 6.0 | 15.0 | 0.00 | 0.00 | 0.00 | 64 | 1023.6 |
| 20260905161503 | 66 | 296 | 8.0 | 17.0 | 0.00 | 0.00 | 0.00 | 63 | 1023.6 |
| 20260905161003 | 67 | 289 | 9.0 | 17.0 | 0.00 | 0.00 | 0.00 | 63 | 1023.5 |
| 20260905160503 | 68 | 284 | 9.0 | 18.0 | 0.00 | 0.00 | 0.00 | 63 | 1023.4 |
| 20260905160003 | 67 | 275 | 8.0 | 18.0 | 0.00 | 0.00 | 0.00 | 64 | 1023.3 |
| 20260905155717 | 67 | 276 | 8.0 | 18.0 | 0.00 | 0.00 | 0.00 | 65 | 1023.3 |
| 20260905155003 | 66 | 275 | 8.0 | 16.0 | 0.00 | 0.00 | 0.00 | 68 | 1023.2 |
| 20260905154503 | 66 | 277 | 7.0 | 14.0 | 0.00 | 0.00 | 0.00 | 69 | 1023.2 |
| 20260905154003 | 66 | 279 | 8.0 | 16.0 | 0.00 | 0.00 | 0.00 | 70 | 1023.1 |
| 20260905153503 | 66 | 277 | 8.0 | 16.0 | 0.00 | 0.00 | 0.00 | 70 | 1023.1 |
| 20260905153218 | 66 | 273 | 8.0 | 16.0 | 0.00 | 0.00 | 0.00 | 72 | 1023.2 |
| 20260905152505 | 66 | 270 | 7.0 | 11.0 | 0.00 | 0.00 | 0.00 | 73 | 1023.1 |
| 20260905152003 | 65 | 277 | 6.0 | 12.0 | 0.00 | 0.00 | 0.00 | 73 | 1023.0 |
| 20260905151503 | 66 | 282 | 6.0 | 13.0 | 0.00 | 0.00 | 0.00 | 73 | 1023.0 |
| 20260905151003 | 67 | 287 | 6.0 | 13.0 | 0.00 | 0.00 | 0.00 | 71 | 1022.9 |
| 20260905150503 | 67 | 293 | 7.0 | 16.0 | 0.00 | 0.00 | 0.00 | 68 | 1022.9 |
| 20260905150003 | 67 | 287 | 7.0 | 16.0 | 0.00 | 0.00 | 0.00 | 68 | 1022.7 |
| 20260905145503 | 68 | 277 | 7.0 | 15.0 | 0.00 | 0.00 | 0.00 | 68 | 1022.7 |
| 20260905145003 | 68 | 276 | 7.0 | 13.0 | 0.00 | 0.00 | 0.00 | 69 | 1022.6 |
| 20260905144503 | 67 | 273 | 6.0 | 14.0 | 0.00 | 0.00 | 0.00 | 69 | 1022.5 |
| 20260905144218 | 67 | 277 | 7.0 | 15.0 | 0.00 | 0.00 | 0.00 | 70 | 1022.6 |
| 20260905143503 | 67 | 281 | 9.0 | 17.0 | 0.00 | 0.00 | 0.00 | 69 | 1022.6 |
| 20260905143003 | 67 | 277 | 8.0 | 15.0 | 0.00 | 0.00 | 0.00 | 69 | 1022.6 |
| 20260905142503 | 67 | 268 | 7.0 | 13.0 | 0.00 | 0.00 | 0.00 | 69 | 1022.4 |
| 20260905142218 | 67 | 272 | 6.0 | 13.0 | 0.00 | 0.00 | 0.00 | 70 | 1022.4 |
| 20260905141503 | 66 | 282 | 6.0 | 13.0 | 0.00 | 0.00 | 0.00 | 70 | 1022.3 |
| 20260905141003 | 66 | 280 | 7.0 | 16.0 | 0.00 | 0.01 | 0.00 | 70 | 1022.3 |
| 20260905140716 | 66 | 280 | 8.0 | 16.0 | 0.00 | 0.01 | 0.00 | 70 | 1022.3 |
| 20260905140004 | 66 | 276 | 7.0 | 14.0 | 0.00 | 0.01 | 0.00 | 71 | 1022.2 |
| 20260905135503 | 65 | 278 | 7.0 | 14.0 | 0.00 | 0.01 | 0.00 | 71 | 1022.2 |
| 20260905135003 | 65 | 283 | 8.0 | 16.0 | 0.00 | 0.01 | 0.00 | 72 | 1022.2 |
| 20260905134503 | 65 | 285 | 7.0 | 16.0 | 0.00 | 0.01 | 0.00 | 72 | 1022.2 |
| 20260905134003 | 65 | 286 | 7.0 | 15.0 | 0.00 | 0.02 | 0.00 | 72 | 1022.1 |
| 20260905133503 | 65 | 290 | 8.0 | 19.0 | 0.00 | 0.02 | 0.00 | 72 | 1022.0 |
| 20260905133003 | 65 | 292 | 8.0 | 19.0 | 0.00 | 0.02 | 0.00 | 71 | 1022.0 |
| 20260905132503 | 66 | 287 | 8.0 | 16.0 | 0.00 | 0.04 | 0.00 | 71 | 1021.9 |
| 20260905132217 | 66 | 285 | 9.0 | 16.0 | 0.00 | 0.04 | 0.00 | 70 | 1021.9 |
| 20260905131503 | 66 | 286 | 8.0 | 17.0 | 0.00 | 0.06 | 0.00 | 70 | 1021.9 |
| 20260905131003 | 66 | 286 | 10.0 | 17.0 | 0.00 | 0.06 | 0.00 | 69 | 1021.8 |
| 20260905130503 | 66 | 289 | 9.0 | 17.0 | 0.00 | 0.06 | 0.00 | 69 | 1021.8 |
| 20260905130003 | 66 | 291 | 8.0 | 17.0 | 0.00 | 0.06 | 0.00 | 69 | 1021.8 |
| 20260905125503 | 66 | 288 | 7.0 | 15.0 | 0.00 | 0.06 | 0.00 | 69 | 1021.8 |
| 20260905125003 | 66 | 285 | 7.0 | 15.0 | 0.00 | 0.07 | 0.00 | 69 | 1021.7 |
| 20260905124503 | 66 | 288 | 7.0 | 16.0 | 0.00 | 0.07 | 0.00 | 70 | 1021.7 |
| 20260905124003 | 66 | 281 | 7.0 | 20.0 | 0.00 | 0.08 | 0.00 | 71 | 1021.6 |
| 20260905123503 | 66 | 278 | 8.0 | 20.0 | 0.00 | 0.09 | 0.00 | 72 | 1021.5 |
| 20260905123003 | 66 | 291 | 7.0 | 13.0 | 0.00 | 0.10 | 0.00 | 72 | 1021.5 |
| 20260905122503 | 65 | 290 | 8.0 | 18.0 | 0.00 | 0.11 | 0.00 | 72 | 1021.4 |
| 20260905122217 | 65 | 290 | 9.0 | 18.0 | 0.00 | 0.12 | 0.00 | 72 | 1021.4 |
| 20260905121503 | 65 | 301 | 8.0 | 16.0 | 0.00 | 0.13 | 0.00 | 73 | 1021.4 |
| 20260905121003 | 65 | 301 | 7.0 | 14.0 | 0.00 | 0.13 | 0.00 | 73 | 1021.4 |
| 20260905120503 | 65 | 303 | 9.0 | 20.0 | 0.00 | 0.13 | 0.00 | 73 | 1021.3 |
| 20260905120003 | 65 | 304 | 10.0 | 20.0 | 0.00 | 0.13 | 0.00 | 72 | 1021.3 |
| 20260905115503 | 66 | 298 | 9.0 | 19.0 | 0.00 | 0.13 | 0.00 | 71 | 1021.2 |
| 20260905115217 | 66 | 294 | 9.0 | 17.0 | 0.00 | 0.13 | 0.00 | 70 | 1021.2 |
| 20260905114503 | 67 | 287 | 9.0 | 17.0 | 0.00 | 0.13 | 0.00 | 69 | 1021.0 |
| 20260905114217 | 67 | 287 | 8.0 | 17.0 | 0.00 | 0.13 | 0.00 | 69 | 1021.0 |
| 20260905113503 | 67 | 295 | 6.0 | 13.0 | 0.00 | 0.13 | 0.00 | 70 | 1020.9 |
| 20260905113003 | 67 | 295 | 6.0 | 14.0 | 0.00 | 0.13 | 0.00 | 68 | 1020.8 |
| 20260905112503 | 68 | 288 | 7.0 | 18.0 | 0.00 | 0.14 | 0.00 | 67 | 1020.7 |
| 20260905112216 | 68 | 282 | 8.0 | 18.0 | 0.00 | 0.14 | 0.00 | 67 | 1020.8 |
| 20260905111503 | 68 | 273 | 8.0 | 18.0 | 0.00 | 0.16 | 0.00 | 67 | 1020.7 |
| 20260905111003 | 68 | 275 | 7.0 | 16.0 | 0.00 | 0.17 | 0.00 | 67 | 1020.6 |
| 20260905110503 | 68 | 264 | 6.0 | 16.0 | 0.00 | 0.17 | 0.00 | 66 | 1020.4 |
| 20260905110003 | 69 | 244 | 7.0 | 15.0 | 0.00 | 0.17 | 0.00 | 67 | 1020.2 |
| 20260905105503 | 69 | 244 | 7.0 | 16.0 | 0.00 | 0.17 | 0.00 | 67 | 1020.2 |
| 20260905105004 | 68 | 267 | 7.0 | 16.0 | 0.00 | 0.23 | 0.00 | 69 | 1020.2 |
| 20260905104503 | 67 | 279 | 9.0 | 17.0 | 0.00 | 0.23 | 0.00 | 70 | 1020.2 |
| 20260905104003 | 66 | 278 | 9.0 | 17.0 | 0.00 | 0.23 | 0.00 | 70 | 1020.2 |
| 20260905103503 | 66 | 283 | 9.0 | 20.0 | 0.00 | 0.23 | 0.00 | 71 | 1020.1 |
| 20260905103218 | 66 | 283 | 9.0 | 20.0 | 0.00 | 0.23 | 0.00 | 70 | 1020.1 |
| 20260905102503 | 66 | 279 | 9.0 | 22.0 | 0.00 | 0.23 | 0.00 | 73 | 1020.0 |
| 20260905102003 | 66 | 276 | 8.0 | 16.0 | 0.00 | 0.23 | 0.00 | 76 | 1019.9 |
| 20260905101503 | 65 | 272 | 8.0 | 18.0 | 0.00 | 0.23 | 0.00 | 76 | 1020.0 |
| 20260905101003 | 64 | 273 | 7.0 | 18.0 | 0.00 | 0.23 | 0.00 | 78 | 1019.8 |
| 20260905100503 | 64 | 279 | 7.0 | 16.0 | 0.00 | 0.23 | 0.00 | 81 | 1019.8 |
| 20260905100003 | 64 | 281 | 7.0 | 16.0 | 0.00 | 0.23 | 0.00 | 80 | 1019.9 |
| 20260905095717 | 64 | 290 | 7.0 | 16.0 | 0.00 | 0.23 | 0.00 | 80 | 1019.7 |
| 20260905095003 | 65 | 292 | 7.0 | 16.0 | 0.00 | 0.23 | 0.00 | 78 | 1019.7 |
| 20260905094503 | 65 | 281 | 7.0 | 15.0 | 0.00 | 0.23 | 0.00 | 76 | 1019.5 |
| 20260905094218 | 65 | 275 | 8.0 | 15.0 | 0.00 | 0.23 | 0.00 | 76 | 1019.5 |
| 20260905093503 | 65 | 271 | 8.0 | 17.0 | 0.00 | 0.23 | 0.00 | 75 | 1019.3 |
| 20260905093003 | 66 | 276 | 6.0 | 17.0 | 0.00 | 0.23 | 0.00 | 75 | 1019.2 |
| 20260905092503 | 66 | 271 | 6.0 | 15.0 | 0.00 | 0.23 | 0.00 | 74 | 1019.1 |
| 20260905092003 | 66 | 257 | 7.0 | 15.0 | 0.00 | 0.23 | 0.00 | 72 | 1019.1 |
| 20260905091717 | 67 | 252 | 6.0 | 12.0 | 0.00 | 0.23 | 0.00 | 73 | 1019.1 |
| 20260905091003 | 68 | 245 | 6.0 | 17.0 | 0.00 | 0.23 | 0.00 | 72 | 1019.0 |
| 20260905090503 | 68 | 240 | 6.0 | 17.0 | 0.00 | 0.23 | 0.00 | 73 | 1019.0 |
| 20260905090218 | 68 | 251 | 6.0 | 17.0 | 0.00 | 0.23 | 0.00 | 74 | 1019.0 |
| 20260905085503 | 67 | 263 | 6.0 | 16.0 | 0.00 | 0.23 | 0.00 | 77 | 1019.0 |
| 20260905085003 | 66 | 263 | 7.0 | 16.0 | 0.00 | 0.23 | 0.00 | 79 | 1018.9 |
| 20260905084716 | 66 | 264 | 7.0 | 16.0 | 0.00 | 0.24 | 0.00 | 80 | 1018.8 |
| 20260905084003 | 66 | 268 | 5.0 | 13.0 | 0.00 | 0.24 | 0.00 | 80 | 1018.8 |
| 20260905083503 | 66 | 273 | 5.0 | 10.0 | 0.00 | 0.24 | 0.00 | 81 | 1018.9 |
| 20260905083003 | 65 | 268 | 5.0 | 12.0 | 0.00 | 0.24 | 0.00 | 81 | 1018.7 |
| 20260905082503 | 65 | 255 | 5.0 | 13.0 | 0.00 | 0.24 | 0.00 | 80 | 1018.5 |
| 20260905082003 | 65 | 246 | 6.0 | 17.0 | 0.00 | 0.24 | 0.00 | 80 | 1018.6 |
| 20260905081503 | 65 | 252 | 7.0 | 17.0 | 0.00 | 0.24 | 0.00 | 80 | 1018.5 |
| 20260905081003 | 65 | 259 | 6.0 | 13.0 | 0.00 | 0.24 | 0.00 | 80 | 1018.4 |
| 20260905080503 | 66 | 250 | 7.0 | 17.0 | 0.00 | 0.24 | 0.00 | 80 | 1018.4 |
| 20260905080217 | 66 | 250 | 7.0 | 17.0 | 0.00 | 0.24 | 0.00 | 80 | 1018.3 |
| 20260905075503 | 65 | 242 | 6.0 | 14.0 | 0.00 | 0.24 | 0.00 | 81 | 1018.1 |
| 20260905075003 | 65 | 236 | 5.0 | 14.0 | 0.00 | 0.24 | 0.00 | 83 | 1018.1 |
| 20260905074503 | 64 | 235 | 6.0 | 13.0 | 0.00 | 0.24 | 0.00 | 83 | 1018.1 |
| 20260905074003 | 64 | 230 | 5.0 | 13.0 | 0.00 | 0.24 | 0.00 | 84 | 1018.1 |
| 20260905073503 | 64 | 227 | 5.0 | 13.0 | 0.00 | 0.24 | 0.00 | 84 | 1018.1 |
| 20260905073003 | 63 | 231 | 5.0 | 14.0 | 0.00 | 0.24 | 0.00 | 84 | 1018.1 |
| 20260905072503 | 63 | 229 | 5.0 | 14.0 | 0.00 | 0.24 | 0.00 | 84 | 1017.9 |
| 20260905072003 | 63 | 226 | 4.0 | 12.0 | 0.00 | 0.24 | 0.00 | 86 | 1017.9 |
| 20260905071503 | 62 | 227 | 4.0 | 11.0 | 0.00 | 0.24 | 0.00 | 87 | 1017.9 |
| 20260905071003 | 62 | 227 | 4.0 | 11.0 | 0.00 | 0.24 | 0.00 | 87 | 1017.8 |
| 20260905070504 | 61 | 226 | 4.0 | 10.0 | 0.00 | 0.24 | 0.00 | 88 | 1017.8 |
| 20260905070003 | 61 | 232 | 4.0 | 11.0 | 0.00 | 0.24 | 0.00 | 89 | 1017.8 |
| 20260905065503 | 60 | 229 | 4.0 | 11.0 | 0.00 | 0.24 | 0.00 | 90 | 1017.8 |
| 20260905065003 | 60 | 231 | 4.0 | 10.0 | 0.00 | 0.24 | 0.00 | 90 | 1017.9 |
| 20260905064718 | 60 | 238 | 4.0 | 9.0 | 0.00 | 0.24 | 0.00 | 91 | 1017.7 |
| 20260905064217 | 59 | 235 | 3.0 | 7.0 | 0.00 | 0.24 | 0.00 | 92 | 1017.8 |
| 20260905063718 | 58 | 215 | 3.0 | 9.0 | 0.00 | 0.24 | 0.00 | 92 | 1017.7 |
| 20260905063003 | 58 | 193 | 2.0 | 9.0 | 0.00 | 0.24 | 0.00 | 93 | 1017.7 |
| 20260905062503 | 57 | 204 | 2.0 | 7.0 | 0.00 | 0.24 | 0.00 | 93 | 1017.7 |
| 20260905062003 | 57 | 208 | 2.0 | 7.0 | 0.00 | 0.24 | 0.00 | 93 | 1017.6 |
| 20260905061503 | 57 | 202 | 3.0 | 6.0 | 0.00 | 0.24 | 0.00 | 93 | 1017.6 |
| 20260905061216 | 56 | 198 | 3.0 | 6.0 | 0.00 | 0.24 | 0.00 | 93 | 1017.6 |
| 20260905060503 | 56 | 214 | 3.0 | 9.0 | 0.00 | 0.24 | 0.00 | 93 | 1017.5 |
| 20260905060003 | 56 | 208 | 2.0 | 8.0 | 0.00 | 0.24 | 0.00 | 93 | 1017.4 |
| 20260905055503 | 56 | 186 | 2.0 | 7.0 | 0.00 | 0.24 | 0.00 | 93 | 1017.3 |
| 20260905055003 | 56 | 183 | 3.0 | 7.0 | 0.00 | 0.24 | 0.00 | 93 | 1017.4 |
| 20260905054503 | 56 | 189 | 2.0 | 7.0 | 0.00 | 0.24 | 0.00 | 93 | 1017.3 |
| 20260905054003 | 55 | 181 | 2.0 | 7.0 | 0.00 | 0.24 | 0.00 | 93 | 1017.2 |
| 20260905053503 | 55 | 174 | 2.0 | 7.0 | 0.00 | 0.24 | 0.00 | 93 | 1017.2 |
| 20260905053003 | 55 | 171 | 2.0 | 6.0 | 0.00 | 0.24 | 0.00 | 93 | 1017.1 |
| 20260905052719 | 55 | 175 | 2.0 | 5.0 | 0.00 | 0.24 | 0.00 | 93 | 1017.0 |
| 20260905052216 | 55 | 180 | 2.0 | 6.0 | 0.00 | 0.24 | 0.00 | 93 | 1017.0 |
| 20260905051503 | 55 | 170 | 2.0 | 5.0 | 0.00 | 0.24 | 0.00 | 93 | 1016.9 |
| 20260905051218 | 55 | 174 | 2.0 | 5.0 | 0.00 | 0.24 | 0.00 | 93 | 1016.9 |
| 20260905050503 | 55 | 177 | 2.0 | 5.0 | 0.00 | 0.24 | 0.00 | 92 | 1016.8 |
| 20260905050003 | 55 | 170 | 2.0 | 5.0 | 0.00 | 0.24 | 0.00 | 92 | 1016.9 |
| 20260905045503 | 55 | 170 | 2.0 | 5.0 | 0.00 | 0.24 | 0.00 | 92 | 1016.9 |
| 20260905045003 | 55 | 176 | 1.0 | 5.0 | 0.00 | 0.24 | 0.00 | 92 | 1016.9 |
| 20260905044717 | 55 | 182 | 1.0 | 5.0 | 0.00 | 0.24 | 0.00 | 92 | 1016.9 |
| 20260905044218 | 55 | 172 | 2.0 | 6.0 | 0.00 | 0.24 | 0.00 | 92 | 1016.9 |
| 20260905043503 | 55 | 168 | 2.0 | 5.0 | 0.00 | 0.24 | 0.00 | 92 | 1016.8 |
| 20260905043003 | 55 | 171 | 2.0 | 6.0 | 0.00 | 0.24 | 0.00 | 92 | 1016.7 |
| 20260905042503 | 55 | 184 | 2.0 | 6.0 | 0.00 | 0.24 | 0.00 | 92 | 1016.6 |
| 20260905042003 | 55 | 198 | 2.0 | 5.0 | 0.00 | 0.24 | 0.00 | 92 | 1016.6 |
| 20260905041717 | 55 | 200 | 2.0 | 4.0 | 0.00 | 0.24 | 0.00 | 92 | 1016.5 |
| 20260905041003 | 55 | 194 | 1.0 | 4.0 | 0.00 | 0.24 | 0.00 | 92 | 1016.4 |
| 20260905040503 | 55 | 201 | 1.0 | 4.0 | 0.00 | 0.24 | 0.00 | 92 | 1016.5 |
| 20260905040003 | 55 | 219 | 1.0 | 4.0 | 0.00 | 0.24 | 0.00 | 92 | 1016.4 |
| 20260905035503 | 55 | 233 | 1.0 | 5.0 | 0.00 | 0.24 | 0.00 | 92 | 1016.4 |
| 20260905035003 | 55 | 232 | 2.0 | 5.0 | 0.00 | 0.24 | 0.00 | 91 | 1016.3 |
| 20260905034717 | 55 | 229 | 2.0 | 5.0 | 0.00 | 0.24 | 0.00 | 91 | 1016.3 |
| 20260905034003 | 55 | 203 | 1.0 | 5.0 | 0.00 | 0.24 | 0.00 | 92 | 1016.3 |
| 20260905033503 | 56 | 200 | 2.0 | 7.0 | 0.00 | 0.24 | 0.00 | 92 | 1016.3 |
| 20260905033003 | 56 | 202 | 1.0 | 7.0 | 0.00 | 0.24 | 0.00 | 91 | 1016.3 |
| 20260905032503 | 56 | 194 | 0.0 | 4.0 | 0.00 | 0.24 | 0.00 | 91 | 1016.3 |
| 20260905032003 | 56 | 169 | 0.0 | 2.0 | 0.00 | 0.24 | 0.00 | 91 | 1016.3 |
| 20260905031716 | 56 | 185 | 1.0 | 2.0 | 0.00 | 0.24 | 0.00 | 91 | 1016.3 |
| 20260905031003 | 56 | 207 | 1.0 | 3.0 | 0.00 | 0.24 | 0.00 | 91 | 1016.2 |
| 20260905030716 | 56 | 213 | 1.0 | 4.0 | 0.00 | 0.24 | 0.00 | 91 | 1016.1 |
| 20260905030003 | 56 | 184 | 1.0 | 4.0 | 0.00 | 0.24 | 0.00 | 91 | 1016.1 |
| 20260905025503 | 56 | 177 | 1.0 | 5.0 | 0.00 | 0.24 | 0.00 | 91 | 1016.1 |
| 20260905025003 | 56 | 187 | 2.0 | 5.0 | 0.00 | 0.24 | 0.00 | 91 | 1016.0 |
| 20260905024503 | 56 | 195 | 2.0 | 4.0 | 0.00 | 0.24 | 0.00 | 91 | 1016.0 |
| 20260905024218 | 56 | 200 | 1.0 | 5.0 | 0.00 | 0.24 | 0.00 | 91 | 1016.1 |
| 20260905023503 | 56 | 194 | 1.0 | 5.0 | 0.00 | 0.24 | 0.00 | 91 | 1016.0 |
| 20260905023003 | 56 | 174 | 1.0 | 5.0 | 0.00 | 0.24 | 0.00 | 91 | 1016.1 |
| 20260905022503 | 56 | 175 | 1.0 | 5.0 | 0.00 | 0.24 | 0.00 | 91 | 1016.0 |
| 20260905022003 | 56 | 173 | 2.0 | 5.0 | 0.00 | 0.24 | 0.00 | 90 | 1016.0 |
| 20260905021503 | 56 | 170 | 2.0 | 5.0 | 0.00 | 0.24 | 0.00 | 90 | 1015.9 |
| 20260905021003 | 56 | 178 | 2.0 | 4.0 | 0.00 | 0.24 | 0.00 | 90 | 1016.0 |
| 20260905020503 | 56 | 178 | 2.0 | 3.0 | 0.00 | 0.24 | 0.00 | 90 | 1016.0 |
| 20260905020003 | 56 | 171 | 2.0 | 5.0 | 0.00 | 0.24 | 0.00 | 90 | 1015.9 |
| 20260905015503 | 56 | 172 | 2.0 | 5.0 | 0.00 | 0.24 | 0.00 | 90 | 1015.9 |
| 20260905015003 | 56 | 179 | 2.0 | 5.0 | 0.00 | 0.24 | 0.00 | 90 | 1015.8 |
| 20260905014503 | 57 | 177 | 2.0 | 4.0 | 0.00 | 0.24 | 0.00 | 89 | 1015.8 |
| 20260905014003 | 57 | 183 | 2.0 | 4.0 | 0.00 | 0.24 | 0.00 | 89 | 1015.8 |
| 20260905013503 | 57 | 195 | 1.0 | 3.0 | 0.00 | 0.24 | 0.00 | 89 | 1015.7 |
| 20260905013217 | 57 | 190 | 1.0 | 3.0 | 0.00 | 0.24 | 0.00 | 89 | 1015.7 |
| 20260905012503 | 57 | 192 | 1.0 | 5.0 | 0.00 | 0.24 | 0.00 | 89 | 1015.8 |
| 20260905012217 | 57 | 193 | 1.0 | 5.0 | 0.00 | 0.24 | 0.00 | 88 | 1015.7 |
| 20260905011503 | 57 | 191 | 2.0 | 4.0 | 0.00 | 0.24 | 0.00 | 89 | 1015.8 |